Torna al catalogo

RUNNER-1

TYVAK-1005

AttivoScienzaSSO
NORAD 56953·PAYLOAD·🇺🇸 United States

Lanciato Jun 12, 2023 da Vandenberg Space Force Base

Loading…

Prossimi Passaggi (prossime 24 ore)

TLE

AggiornatoSource: Space-Track

Epoca: Sep 14, 2026, 08:48 UTC

1 56953U 23084X   26257.36727390  .00008333  00000-0  21602-3 0  9995
2 56953  97.6369  43.0241 0007592   4.9165 355.2153 15.39265883181310

Traccia RUNNER-1 in tempo reale con AllMySat

Download on the App Store